This is the latest recevied weather packets stored in our database for station/object WD7CGF. If no packets are shown the sender has not sent any weather packets the latest 10 day(s).
| Time | Temp. | Humidity | Pressure | Rain* | Wind** | Luminosity | Snow |
|---|---|---|---|---|---|---|---|
| 1787640516 | 13.89° C | 70% | 1015.9 hPa | 0 mm | - | - | - |
| 1787639929 | 14.44° C | 71% | 1015.7 hPa | 0 mm | - | - | - |
| 1787639321 | 14.44° C | 69% | 1015.7 hPa | 0 mm | - | - | - |
| 1787638715 | 15° C | 69% | 1015.7 hPa | 0 mm | - | - | - |
| 1787638127 | 15.56° C | 68% | 1015.8 hPa | 0 mm | - | - | - |
| 1787637523 | 16.11° C | 67% | 1015.7 hPa | 0 mm | - | - | - |
| 1787636916 | 16.11° C | 65% | 1015.7 hPa | 0 mm | - | - | - |
| 1787636318 | 16.67° C | 64% | 1015.7 hPa | 0 mm | - | - | - |
| 1787635730 | 17.22° C | 63% | 1015.7 hPa | 0 mm | - | - | - |
| 1787635121 | 17.22° C | 62% | 1015.7 hPa | 0 mm | - | - | - |
| 1787634515 | 17.22° C | 60% | 1015.8 hPa | 0 mm | - | - | - |
| 1787633929 | 17.22° C | 60% | 1015.6 hPa | 0 mm | - | - | - |
| 1787633323 | 17.22° C | 61% | 1015.6 hPa | 0 mm | - | - | - |
| 1787632715 | 17.78° C | 62% | 1015.7 hPa | 0 mm | - | - | - |
| 1787632112 | 17.78° C | 60% | 1015.6 hPa | 0 mm | - | - | - |
| 1787631529 | 18.33° C | 60% | 1015.6 hPa | 0 mm | - | - | - |
| 1787630922 | 19.44° C | 60% | 1014.6 hPa | 0 mm | - | - | - |
| 1787630315 | 20° C | 58% | 1015.4 hPa | 0 mm | - | - | - |
| 1787629728 | 20.56° C | 57% | 1015.4 hPa | 0 mm | - | - | - |
| 1787629121 | 20.56° C | 56% | 1015.3 hPa | 0 mm | - | - | - |
| 1787628515 | 21.11° C | 55% | 1015.1 hPa | 0 mm | - | - | - |
| 1787627931 | 21.11° C | 55% | 1015.1 hPa | 0 mm | - | - | - |
| 1787627327 | 21.67° C | 56% | 1014.2 hPa | 0 mm | - | - | - |
| 1787626717 | 22.22° C | 55% | 1014.9 hPa | 0 mm | - | - | - |
| 1787626114 | 23.33° C | 53% | 1014.9 hPa | 0 mm | - | - | - |
* Rain latest hour (hover to see other rain measurements)
** Current wind speed in m/s (hover to see current wind gust speed)